Time,TemperatureF,DewpointF,PressureIn,WindDirection,WindDirectionDegrees,WindSpeedMPH,WindSpeedGustMPH,Humidity,HourlyPrecipIn,Conditions,Clouds,dailyrainin,SolarRadiationWatts/m^2,SoftwareType,DateUTC
2013-07-19 00:43:00,65.0,55.0,-100.00,South,191,8.0,14.0,70,0.00,,,-99.99,3.000000,,2013-07-19 08:43:00,
2013-07-19 00:52:00,65.0,55.0,-100.00,South,191,8.0,14.0,70,0.00,,,-99.99,3.000000,,2013-07-19 08:52:00,
2013-07-19 01:43:00,62.0,54.0,-100.00,SSW,198,8.0,14.0,76,0.00,,,-99.99,0.000000,,2013-07-19 09:43:00,
2013-07-19 01:52:00,62.0,54.0,-100.00,SSW,198,8.0,14.0,76,0.00,,,-99.99,0.000000,,2013-07-19 09:52:00,
2013-07-19 02:43:00,62.0,52.0,-100.00,SSW,197,6.0,16.0,71,0.00,,,-99.99,0.000000,,2013-07-19 10:43:00,
2013-07-19 02:52:00,62.0,52.0,-100.00,SSW,197,6.0,16.0,71,0.00,,,-99.99,0.000000,,2013-07-19 10:52:00,
2013-07-19 03:33:00,61.0,53.0,-100.00,South,186,10.0,17.0,74,0.00,,,-99.99,0.000000,,2013-07-19 11:33:00,
2013-07-19 03:43:00,61.0,53.0,-100.00,South,186,10.0,17.0,74,0.00,,,-99.99,0.000000,,2013-07-19 11:43:00,
2013-07-19 03:52:00,61.0,53.0,-100.00,South,186,10.0,17.0,74,0.00,,,-99.99,0.000000,,2013-07-19 11:52:00,
2013-07-19 04:22:00,60.0,51.0,-100.00,South,174,7.0,16.0,73,0.00,,,-99.99,0.000000,,2013-07-19 12:22:00,
2013-07-19 04:33:00,60.0,51.0,-100.00,South,174,7.0,16.0,73,0.00,,,-99.99,0.000000,,2013-07-19 12:33:00,
2013-07-19 04:43:00,60.0,51.0,-100.00,South,174,7.0,16.0,73,0.00,,,-99.99,0.000000,,2013-07-19 12:43:00,
2013-07-19 04:52:00,60.0,51.0,-100.00,South,174,7.0,16.0,73,0.00,,,-99.99,0.000000,,2013-07-19 12:52:00,
2013-07-19 05:22:00,61.0,50.0,-100.00,South,191,7.0,18.0,68,0.00,,,0.00,1.000000,,2013-07-19 13:22:00,
2013-07-19 05:32:00,61.0,50.0,-100.00,South,191,7.0,18.0,68,0.00,,,0.00,1.000000,,2013-07-19 13:32:00,
2013-07-19 05:43:00,61.0,50.0,-100.00,South,191,7.0,18.0,68,0.00,,,0.00,1.000000,,2013-07-19 13:43:00,
2013-07-19 05:53:00,61.0,50.0,-100.00,South,191,7.0,18.0,68,0.00,,,0.00,1.000000,,2013-07-19 13:53:00,
2013-07-19 06:43:00,58.0,50.0,-100.00,SSW,198,5.0,11.0,76,0.00,,,0.00,11.000000,,2013-07-19 14:43:00,
2013-07-19 06:52:00,58.0,50.0,-100.00,SSW,198,5.0,11.0,76,0.00,,,0.00,11.000000,,2013-07-19 14:52:00,
2013-07-19 07:43:00,58.0,53.0,-100.00,South,191,5.0,9.0,82,0.00,,,0.00,25.000000,,2013-07-19 15:43:00,
2013-07-19 07:52:00,58.0,53.0,-100.00,South,191,5.0,9.0,82,0.00,,,0.00,25.000000,,2013-07-19 15:52:00,
2013-07-19 08:22:00,60.0,50.0,-100.00,SSW,193,5.0,15.0,69,0.00,,,0.00,92.000000,,2013-07-19 16:22:00,
2013-07-19 08:32:00,60.0,50.0,-100.00,SSW,193,5.0,15.0,69,0.00,,,0.00,92.000000,,2013-07-19 16:32:00,
2013-07-19 08:43:00,60.0,50.0,-100.00,SSW,193,5.0,15.0,69,0.00,,,0.00,92.000000,,2013-07-19 16:43:00,
2013-07-19 08:52:00,60.0,50.0,-100.00,SSW,193,5.0,15.0,69,0.00,,,0.00,92.000000,,2013-07-19 16:52:00,
2013-07-19 09:22:00,60.0,52.0,-100.00,South,191,6.0,14.0,74,0.00,,,0.00,129.000000,,2013-07-19 17:22:00,
2013-07-19 09:32:00,60.0,52.0,-100.00,South,191,6.0,14.0,74,0.00,,,0.00,129.000000,,2013-07-19 17:32:00,
2013-07-19 09:43:00,60.0,52.0,-100.00,South,191,6.0,14.0,74,0.00,,,0.00,129.000000,,2013-07-19 17:43:00,
2013-07-19 09:52:00,60.0,52.0,-100.00,South,191,6.0,14.0,74,0.00,,,0.00,129.000000,,2013-07-19 17:52:00,
2013-07-19 10:21:00,62.0,51.0,-100.00,SW,215,6.0,15.0,67,0.00,,,-99.99,325.000000,,2013-07-19 18:21:00,
2013-07-19 10:32:00,62.0,51.0,-100.00,SW,215,6.0,15.0,67,0.00,,,-99.99,325.000000,,2013-07-19 18:32:00,
2013-07-19 10:42:00,62.0,51.0,-100.00,SW,215,6.0,15.0,67,0.00,,,-99.99,325.000000,,2013-07-19 18:42:00,
2013-07-19 10:52:00,62.0,51.0,-100.00,SW,215,6.0,15.0,67,0.00,,,-99.99,325.000000,,2013-07-19 18:52:00,
2013-07-19 11:43:00,64.0,52.0,-100.00,SSW,203,7.0,11.0,65,0.00,,,0.00,498.000000,,2013-07-19 19:43:00,
2013-07-19 11:52:00,64.0,52.0,-100.00,SSW,203,7.0,11.0,65,0.00,,,0.00,498.000000,,2013-07-19 19:52:00,
2013-07-19 12:43:00,66.0,53.0,-100.00,SW,221,5.0,13.0,62,0.00,,,0.00,621.000000,,2013-07-19 20:43:00,
2013-07-19 12:52:00,66.0,53.0,-100.00,SW,221,5.0,13.0,62,0.00,,,0.00,621.000000,,2013-07-19 20:52:00,
2013-07-19 13:42:00,65.0,52.0,-100.00,SSW,194,6.0,15.0,63,0.00,,,0.00,531.000000,,2013-07-19 21:42:00,
2013-07-19 13:52:00,65.0,52.0,-100.00,SSW,194,6.0,15.0,63,0.00,,,0.00,531.000000,,2013-07-19 21:52:00,
2013-07-19 16:52:00,71.0,53.0,-100.00,SSW,206,7.0,12.0,53,-99.99,,,0.00,762.000000,,2013-07-20 00:52:00,
2013-07-19 17:32:00,71.0,54.0,-100.00,SW,215,6.0,11.0,55,0.00,,,-99.99,633.000000,,2013-07-20 01:32:00,
2013-07-19 17:52:00,71.0,54.0,-100.00,SW,215,6.0,11.0,55,0.00,,,-99.99,633.000000,,2013-07-20 01:52:00,
2013-07-19 18:32:00,72.0,54.0,-100.00,WSW,243,4.0,12.0,53,0.00,,,-99.99,598.000000,,2013-07-20 02:32:00,
2013-07-19 18:43:00,72.0,54.0,-100.00,WSW,243,4.0,12.0,53,0.00,,,-99.99,598.000000,,2013-07-20 02:43:00,
2013-07-19 18:52:00,72.0,54.0,-100.00,WSW,243,4.0,12.0,53,0.00,,,-99.99,598.000000,,2013-07-20 02:52:00,
2013-07-19 19:22:00,68.0,54.0,-100.00,NNW,327,3.0,8.0,61,-99.99,,,0.00,296.000000,,2013-07-20 03:22:00,
2013-07-19 19:32:00,68.0,54.0,-100.00,NNW,327,3.0,8.0,61,-99.99,,,0.00,296.000000,,2013-07-20 03:32:00,
2013-07-19 19:44:00,68.0,54.0,-100.00,NNW,327,3.0,8.0,61,-99.99,,,0.00,296.000000,,2013-07-20 03:44:00,
2013-07-19 19:52:00,68.0,54.0,-100.00,NNW,327,3.0,8.0,61,-99.99,,,0.00,296.000000,,2013-07-20 03:52:00,
2013-07-19 20:22:00,69.0,54.0,-100.00,SSW,208,5.0,7.0,58,0.00,,,-99.99,302.000000,,2013-07-20 04:22:00,
2013-07-19 20:33:00,69.0,54.0,-100.00,SSW,208,5.0,7.0,58,0.00,,,-99.99,302.000000,,2013-07-20 04:33:00,
2013-07-19 20:44:00,69.0,54.0,-100.00,SSW,208,5.0,7.0,58,0.00,,,-99.99,302.000000,,2013-07-20 04:44:00,
2013-07-19 20:52:00,69.0,54.0,-100.00,SSW,208,5.0,7.0,58,0.00,,,-99.99,302.000000,,2013-07-20 04:52:00,
2013-07-19 21:22:00,71.0,52.0,-100.00,WNW,293,3.0,8.0,52,0.00,,,0.00,256.000000,,2013-07-20 05:22:00,
2013-07-19 21:32:00,71.0,52.0,-100.00,WNW,293,3.0,8.0,52,0.00,,,0.00,256.000000,,2013-07-20 05:32:00,
2013-07-19 21:52:00,71.0,52.0,-100.00,WNW,293,3.0,8.0,52,0.00,,,0.00,256.000000,,2013-07-20 05:52:00,
2013-07-19 22:43:00,65.0,48.0,-100.00,SSE,162,3.0,6.0,55,0.00,,,0.00,120.000000,,2013-07-20 06:43:00,
2013-07-19 22:52:00,65.0,48.0,-100.00,SSE,162,3.0,6.0,55,0.00,,,0.00,120.000000,,2013-07-20 06:52:00,
2013-07-19 23:22:00,61.0,50.0,-100.00,SSW,194,6.0,13.0,66,0.00,,,0.00,27.000000,,2013-07-20 07:22:00,
2013-07-19 23:33:00,61.0,50.0,-100.00,SSW,194,6.0,13.0,66,0.00,,,0.00,27.000000,,2013-07-20 07:33:00,
2013-07-19 23:44:00,61.0,50.0,-100.00,SSW,194,6.0,13.0,66,0.00,,,0.00,27.000000,,2013-07-20 07:44:00,
2013-07-19 23:53:00,61.0,50.0,-100.00,SSW,194,6.0,13.0,66,0.00,,,0.00,27.000000,,2013-07-20 07:53:00,